Weather History for Leesburg, FL

Change the Weather History Date:

Sunday, March 4, 2012

  Actual Average Record
Temperature  
Mean Temperature 65 °F -  
Max Temperature 77 °F 75 °F 86 °F (1964)
Min Temperature 53 °F 51 °F 25 °F (1980)
Growing Degree Days 15 (Base 50)    
Moisture  
Dew Point 48 °F    
Average Humidity 61    
Maximum Humidity 90    
Minimum Humidity 20    
Precipitation  
Precipitation 0.27 in - - ()
Sea Level Pressure  
Sea Level Pressure 29.90 in    
Wind  
Wind Speed 16 mph (WNW)    
Max Wind Speed 38 mph    
Max Gust Speed 55 mph    
Visibility 9 miles    
Events Rain , Thunderstorm    
Averages and records for this station are not official NWS values.
T = Trace of Precipitation, MM = Missing Value Source: NWS Daily Summary

Daily Weather History Graph

Daily Weather History Graph

Search for Another Location

Airport:

Trip Planner

Search our weather history database for the weather conditions in past years. The results will help you decide how hot, cold, wet, or windy it might be!

Date:

Astronomy

Mar. 04, 2012 Rise Set
Actual Time 6:48 AM EST 6:29 PM EST
Civil Twilight 6:24 AM EST 6:53 PM EST
Nautical Twilight 5:57 AM EST 7:20 PM EST
Astronomical Twilight 5:30 AM EST 7:47 PM EST
Moon 2:55 PM EST (3/4) 3:51 AM EST (3/4)
Length of Visible Light 12h 28m
Length of Day
11h 40m
Waxing Gibbous, 83% of the Moon is Illuminated
Mar 4
Waxing Gibbous
Mar 8
Full
Mar 14
Last Quarter
Mar 22
New
Mar 30
First Quarter

Hourly Weather History & Observations

Time (EST) Temp. Dew Point Humidity Pressure Visibility Wind Dir Wind Speed Gust Speed Precip Events Conditions
12:53 AM 73.0 °F 66.0 °F 79% 29.77 in 10.0 mi SSW 15.0 mph 23.0 mph N/A   Clear
1:53 AM 73.0 °F 66.0 °F 79% 29.73 in 10.0 mi SSW 16.1 mph 24.2 mph N/A   Clear
2:53 AM 73.0 °F 66.0 °F 79% 29.70 in 10.0 mi SSW 18.4 mph 26.5 mph N/A   Clear
3:20 AM 73.4 °F 66.2 °F 78% 29.69 in 10.0 mi SSW 16.1 mph 24.2 mph N/A   Mostly Cloudy
3:53 AM 73.9 °F 68.0 °F 82% 29.69 in 10.0 mi SSW 18.4 mph 25.3 mph N/A   Overcast
4:25 AM 75.2 °F 66.2 °F 73% 29.66 in 10.0 mi SSW 13.8 mph 25.3 mph N/A   Overcast
4:53 AM 75.9 °F 66.9 °F 74% 29.63 in 10.0 mi SSW 19.6 mph 28.8 mph N/A   Overcast
5:11 AM 77.0 °F 66.2 °F 69% 29.65 in 9.0 mi SW 13.8 mph 39.1 mph N/A Thunderstorm Overcast
5:16 AM 73.4 °F 66.2 °F 78% 29.71 in 1.0 mi West 38.0 mph 55.2 mph 0.19 in Rain , Thunderstorm Light Thunderstorms and Rain
5:23 AM 69.8 °F 64.4 °F 83% 29.71 in 0.8 mi West 17.3 mph 55.2 mph 0.24 in Rain , Thunderstorm Light Thunderstorms and Rain
5:25 AM 69.8 °F 64.4 °F 83% 29.72 in 1.0 mi West 16.1 mph 41.4 mph 0.25 in Rain , Thunderstorm Light Thunderstorms and Rain
5:28 AM 69.8 °F 64.4 °F 83% 29.72 in 3.0 mi West 17.3 mph 27.6 mph 0.26 in Rain , Thunderstorm Thunderstorms and Rain
5:35 AM 69.8 °F 66.2 °F 88% 29.74 in 6.0 mi West 17.3 mph 25.3 mph 0.26 in Rain , Thunderstorm Light Thunderstorms and Rain
5:39 AM 69.8 °F 64.4 °F 83% 29.75 in 10.0 mi NW 17.3 mph 25.3 mph 0.26 in   Overcast
5:45 AM 64.4 °F 60.8 °F 88% 29.76 in 10.0 mi NW 13.8 mph 27.6 mph 0.26 in   Overcast
5:53 AM 63.0 °F 60.1 °F 90% 29.77 in 10.0 mi NW 15.0 mph 25.3 mph 0.26 in   Overcast
6:04 AM 59.0 °F 55.4 °F 88% 29.80 in 10.0 mi NNW 21.9 mph 31.1 mph 0.01 in   Overcast
6:53 AM 54.0 °F 50.0 °F 86% 29.86 in 10.0 mi NNW 19.6 mph 27.6 mph 0.01 in   Overcast
7:53 AM 53.1 °F 48.0 °F 83% 29.94 in 10.0 mi NW 12.7 mph 25.3 mph N/A   Overcast
8:21 AM 53.6 °F 46.4 °F 77% 29.98 in 10.0 mi NW 12.7 mph 27.6 mph N/A   Overcast
8:53 AM 54.0 °F 42.1 °F 64% 30.01 in 10.0 mi NW 12.7 mph 24.2 mph N/A   Overcast
9:53 AM 55.0 °F 37.0 °F 51% 30.06 in 10.0 mi NNW 19.6 mph 29.9 mph N/A   Overcast
10:53 AM 57.9 °F 34.0 °F 41% 30.08 in 10.0 mi NNW 18.4 mph 28.8 mph N/A   Mostly Cloudy
11:53 AM 61.0 °F 32.0 °F 34% 30.08 in 10.0 mi NNW 20.7 mph 29.9 mph N/A   Clear
12:53 PM 63.0 °F 27.0 °F 26% 30.07 in 10.0 mi WNW 20.7 mph 33.4 mph N/A   Clear
1:53 PM 63.0 °F 25.0 °F 24% 30.05 in 10.0 mi NW 15.0 mph 26.5 mph N/A   Clear
2:53 PM 64.9 °F 23.0 °F 20% 30.03 in 10.0 mi NW 15.0 mph 25.3 mph N/A   Clear
3:53 PM 64.9 °F 23.0 °F 20% 30.03 in 10.0 mi NW 11.5 mph 19.6 mph N/A   Clear
4:53 PM 63.0 °F 23.0 °F 22% 30.07 in 10.0 mi NW 11.5 mph - N/A   Clear
5:53 PM 62.1 °F 19.9 °F 20% 30.10 in 10.0 mi NW 11.5 mph 18.4 mph N/A   Clear
6:53 PM 60.1 °F 19.9 °F 21% 30.13 in 10.0 mi NW 8.1 mph - N/A   Clear
7:53 PM 57.9 °F 32.0 °F 37% 30.17 in 10.0 mi West 9.2 mph - N/A   Clear
8:53 PM 55.9 °F 30.9 °F 39% 30.21 in 10.0 mi WNW 9.2 mph - N/A   Clear
9:53 PM 55.0 °F 30.9 °F 40% 30.23 in 10.0 mi NW 6.9 mph - N/A   Clear
10:53 PM 55.0 °F 28.9 °F 37% 30.25 in 10.0 mi NW 9.2 mph - N/A   Clear